This is the latest recevied weather packets stored in our database for station/object N5PA. If no packets are shown the sender has not sent any weather packets the latest 10 day(s).
| Time | Temp. | Humidity | Pressure | Rain* | Wind** | Luminosity | Snow |
|---|---|---|---|---|---|---|---|
| 1777409406 | 30° C | 59% | 1014.2 hPa | 0 mm | - | 977 W/m² | - |
| 1777409106 | 30° C | 59% | 1014.4 hPa | 0 mm | - | 976 W/m² | - |
| 1777408805 | 30° C | 58% | 1014.5 hPa | 0 mm | - | 977 W/m² | - |
| 1777408507 | 30° C | 57% | 1014.5 hPa | 0 mm | - | 977 W/m² | - |
| 1777408207 | 30° C | 57% | 1014.4 hPa | 0 mm | - | 977 W/m² | - |
| 1777407907 | 30° C | 57% | 1014.6 hPa | 0 mm | - | 976 W/m² | - |
| 1777407606 | 30.56° C | 58% | 1014.8 hPa | 0 mm | - | 976 W/m² | - |
| 1777407308 | 30.56° C | 56% | 1015.1 hPa | 0 mm | - | 976 W/m² | - |
| 1777407006 | 30.56° C | 56% | 1015.2 hPa | 0 mm | - | 974 W/m² | - |
| 1777406707 | 30.56° C | 55% | 1015.3 hPa | 0 mm | - | 974 W/m² | - |
| 1777406406 | 30.56° C | 54% | 1015.5 hPa | 0 mm | - | 976 W/m² | - |
| 1777406107 | 30.56° C | 56% | 1015.6 hPa | 0 mm | - | 976 W/m² | - |
| 1777405806 | 30.56° C | 57% | 1015.6 hPa | 0 mm | - | 976 W/m² | - |
| 1777405507 | 30.56° C | 53% | 1015.6 hPa | 0 mm | - | 976 W/m² | - |
| 1777405206 | 30.56° C | 54% | 1015.7 hPa | 0 mm | - | 974 W/m² | - |
| 1777404907 | 30.56° C | 57% | 1015.6 hPa | 0 mm | - | 976 W/m² | - |
| 1777404608 | 30° C | 60% | 1015.8 hPa | 0 mm | - | 976 W/m² | - |
| 1777404305 | 30° C | 57% | 1015.9 hPa | 0 mm | - | 976 W/m² | - |
| 1777404007 | 30° C | 58% | 1016 hPa | 0 mm | - | 974 W/m² | - |
| 1777403707 | 30° C | 57% | 1016.1 hPa | 0 mm | - | 974 W/m² | - |
| 1777403407 | 30.56° C | 57% | 1016.1 hPa | 0 mm | - | 972 W/m² | - |
| 1777403107 | 30° C | 57% | 1015.9 hPa | 0 mm | - | 972 W/m² | - |
| 1777402807 | 30° C | 58% | 1016.1 hPa | 0 mm | - | 974 W/m² | - |
| 1777402506 | 30° C | 57% | 1016.2 hPa | 0 mm | - | 972 W/m² | - |
| 1777402207 | 30° C | 57% | 1016.3 hPa | 0 mm | - | 972 W/m² | - |
* Rain latest hour (hover to see other rain measurements)
** Current wind speed in m/s (hover to see current wind gust speed)